• In Russia
  • List of Countries
  • For 7 days
  • Water Temperature
  • Satellite Maps
  • Weather Map
  • Weather Widgets
  • user-avatar
    Login

    Hourly Weather Muhorshibir

    Today, 24 April, Wednesday

    Time Temperature Precipitation Wind Pressure Humidity
    00:00 -2°C° 0 mm 1 mps 702 mmHg 38%
    01:00 -3°C° 0 mm 1 mps 702 mmHg 39%
    02:00 -3°C° 0 mm 1 mps 702 mmHg 39%
    03:00 -3°C° 0 mm 1 mps 702 mmHg 40%
    04:00 -3°C° 0 mm 1 mps 702 mmHg 40%
    05:00 -2°C° 0 mm 1 mps 702 mmHg 36%
    06:00 -2°C° 0 mm 2 mps 702 mmHg 31%
    07:00 -1°C° 0 mm 2 mps 702 mmHg 25%
    08:00 +3°C° 0 mm 2 mps 701 mmHg 22%
    09:00 +5°C° 0 mm 2 mps 701 mmHg 18%
    10:00 +7°C° 0 mm 2 mps 700 mmHg 15%
    11:00 +8°C° 0 mm 2 mps 700 mmHg 14%
    12:00 +9°C° 0 mm 2 mps 699 mmHg 13%
    13:00 +9°C° 0 mm 2 mps 698 mmHg 13%
    14:00 +9°C° 0 mm 3 mps 698 mmHg 13%
    15:00 +9°C° 0 mm 3 mps 698 mmHg 13%
    16:00 +9°C° 0 mm 3 mps 697 mmHg 14%
    17:00 +7°C° 0 mm 2 mps 697 mmHg 17%
    18:00 +6°C° 0 mm 2 mps 696 mmHg 20%
    19:00 +5°C° 0 mm 1 mps 696 mmHg 23%
    20:00 +4°C° 0 mm 1 mps 696 mmHg 24%
    21:00 +3°C° 0 mm 1 mps 696 mmHg 25%
    22:00 +3°C° 0 mm 1 mps 697 mmHg 27%
    23:00 +2°C° 0 mm 1 mps 696 mmHg 28%

    Tomorrow, 25 April, Thursday

    Time Temperature Precipitation Wind Pressure Humidity
    00:00 +2°C° 0 mm 1 mps 696 mmHg 30%
    01:00 +2°C° 0 mm 1 mps 696 mmHg 31%
    02:00 +1°C° 0 mm 1 mps 696 mmHg 32%
    03:00 +1°C° 0 mm 1 mps 696 mmHg 33%
    04:00 +1°C° 0 mm 1 mps 696 mmHg 34%
    05:00 +3°C° 0 mm 1 mps 696 mmHg 31%
    06:00 +4°C° 0 mm 1 mps 697 mmHg 28%
    07:00 +6°C° 0 mm 1 mps 697 mmHg 25%
    08:00 +8°C° 0 mm 1 mps 697 mmHg 24%
    09:00 +10°C° 0 mm 1 mps 697 mmHg 23%
    10:00 +13°C° 0 mm 1 mps 697 mmHg 22%
    11:00 +13°C° 0 mm 1 mps 697 mmHg 22%
    12:00 +14°C° 0 mm 1 mps 696 mmHg 21%
    13:00 +15°C° 0 mm 1 mps 696 mmHg 21%
    14:00 +15°C° 0 mm 2 mps 696 mmHg 21%
    15:00 +14°C° 0 mm 2 mps 696 mmHg 21%
    16:00 +14°C° 0 mm 2 mps 695 mmHg 22%
    17:00 +13°C° 0 mm 2 mps 695 mmHg 25%
    18:00 +11°C° 0 mm 1 mps 695 mmHg 29%
    19:00 +9°C° 0 mm 1 mps 695 mmHg 33%
    20:00 +9°C° 0 mm 1 mps 695 mmHg 35%
    21:00 +7°C° 0 mm 2 mps 695 mmHg 38%
    22:00 +6°C° 0 mm 2 mps 695 mmHg 40%
    23:00 +5°C° 0 mm 2 mps 695 mmHg 44%

    Day after tomorrow, 26 April, Friday

    Time Temperature Precipitation Wind Pressure Humidity
    00:00 +5°C° 0 mm 2 mps 695 mmHg 49%
    01:00 +4°C° 0 mm 2 mps 694 mmHg 53%
    02:00 +4°C° 0 mm 2 mps 694 mmHg 58%
    03:00 +4°C° 0 mm 2 mps 694 mmHg 62%
    04:00 +3°C° 0 mm 2 mps 693 mmHg 66%
    05:00 +4°C° 0 mm 3 mps 693 mmHg 59%
    06:00 +5°C° 0 mm 4 mps 692 mmHg 52%
    07:00 +7°C° 0 mm 4 mps 692 mmHg 44%
    08:00 +8°C° 0 mm 4 mps 692 mmHg 40%
    09:00 +10°C° 0 mm 5 mps 691 mmHg 37%
    10:00 +12°C° 0 mm 5 mps 691 mmHg 33%
    11:00 +13°C° 0 mm 5 mps 691 mmHg 32%
    12:00 +14°C° 0 mm 5 mps 690 mmHg 31%
    13:00 +16°C° 0 mm 5 mps 690 mmHg 30%
    14:00 +15°C° 0 mm 5 mps 690 mmHg 33%
    15:00 +14°C° 0 mm 6 mps 690 mmHg 35%
    16:00 +14°C° 0 mm 6 mps 690 mmHg 38%
    17:00 +12°C° 0 mm 5 mps 691 mmHg 43%
    18:00 +11°C° 0 mm 3 mps 692 mmHg 47%
    19:00 +9°C° 0 mm 2 mps 693 mmHg 52%
    20:00 +8°C° 0 mm 2 mps 693 mmHg 56%
    21:00 +8°C° 0 mm 1 mps 694 mmHg 61%
    22:00 +6°C° 0 mm 0 mps 694 mmHg 65%
    23:00 +6°C° 0 mm 1 mps 695 mmHg 67%

    27 April, Saturday

    Time Temperature Precipitation Wind Pressure Humidity
    00:00 +6°C° 0 mm 1 mps 695 mmHg 69%
    01:00 +5°C° 0 mm 1 mps 695 mmHg 71%
    02:00 +5°C° 0 mm 1 mps 695 mmHg 72%
    03:00 +4°C° 0 mm 1 mps 695 mmHg 73%
    04:00 +4°C° 0 mm 1 mps 695 mmHg 75%
    05:00 +6°C° 0 mm 1 mps 695 mmHg 67%
    06:00 +8°C° 0 mm 1 mps 695 mmHg 59%
    07:00 +9°C° 0 mm 1 mps 695 mmHg 51%
    08:00 +10°C° 0 mm 2 mps 695 mmHg 44%
    09:00 +13°C° 0 mm 2 mps 695 mmHg 36%
    10:00 +16°C° 0 mm 2 mps 695 mmHg 28%
    11:00 +17°C° 0 mm 3 mps 694 mmHg 26%
    12:00 +17°C° 0 mm 3 mps 694 mmHg 23%
    13:00 +18°C° 0 mm 3 mps 693 mmHg 20%
    14:00 +18°C° 0 mm 3 mps 693 mmHg 20%
    15:00 +19°C° 0 mm 3 mps 693 mmHg 19%
    16:00 +19°C° 0 mm 3 mps 692 mmHg 18%
    17:00 +17°C° 0 mm 2 mps 692 mmHg 21%
    18:00 +15°C° 0 mm 1 mps 691 mmHg 23%
    19:00 +13°C° 0 mm 1 mps 691 mmHg 26%
    20:00 +13°C° 0 mm 1 mps 691 mmHg 28%
    21:00 +12°C° 0 mm 1 mps 692 mmHg 30%
    22:00 +12°C° 0 mm 1 mps 692 mmHg 32%
    23:00 +11°C° 0.1 mm 1 mps 692 mmHg 36%

    28 April, Sunday

    Time Temperature Precipitation Wind Pressure Humidity
    00:00 +11°C° 0.1 mm 1 mps 692 mmHg 40%
    01:00 +9°C° 0.1 mm 0 mps 692 mmHg 44%
    02:00 +9°C° 0.3 mm 0 mps 692 mmHg 50%
    03:00 +8°C° 0.3 mm 0 mps 692 mmHg 56%
    04:00 +8°C° 0.3 mm 0 mps 692 mmHg 61%
    05:00 +8°C° 0.1 mm 0 mps 692 mmHg 59%
    06:00 +9°C° 0.1 mm 0 mps 692 mmHg 56%
    07:00 +10°C° 0.1 mm 0 mps 692 mmHg 54%
    08:00 +13°C° 0 mm 1 mps 692 mmHg 49%
    09:00 +15°C° 0 mm 1 mps 691 mmHg 44%
    10:00 +16°C° 0 mm 2 mps 691 mmHg 39%
    11:00 +17°C° 0 mm 2 mps 691 mmHg 35%
    12:00 +18°C° 0 mm 3 mps 690 mmHg 30%
    13:00 +19°C° 0 mm 3 mps 690 mmHg 26%
    14:00 +19°C° 0 mm 3 mps 690 mmHg 24%
    15:00 +20°C° 0 mm 4 mps 690 mmHg 23%
    16:00 +20°C° 0 mm 4 mps 690 mmHg 21%
    17:00 +16°C° 0 mm 5 mps 691 mmHg 27%
    18:00 +11°C° 0 mm 7 mps 691 mmHg 34%
    19:00 +7°C° 0 mm 8 mps 692 mmHg 40%
    20:00 +6°C° 0.1 mm 8 mps 693 mmHg 47%
    21:00 +4°C° 0.1 mm 8 mps 694 mmHg 54%
    22:00 +2°C° 0.1 mm 7 mps 695 mmHg 61%
    23:00 +2°C° 0 mm 7 mps 696 mmHg 55%

    29 April, Monday

    Time Temperature Precipitation Wind Pressure Humidity
    00:00 +2°C° 0 mm 6 mps 697 mmHg 48%
    01:00 +2°C° 0 mm 5 mps 698 mmHg 42%
    02:00 +2°C° 0 mm 5 mps 699 mmHg 44%
    03:00 +1°C° 0 mm 5 mps 699 mmHg 46%
    04:00 0°C° 0 mm 5 mps 700 mmHg 47%
    05:00 0°C° 0 mm 5 mps 701 mmHg 45%
    06:00 -1°C° 0 mm 6 mps 702 mmHg 43%
    07:00 -1°C° 0 mm 6 mps 702 mmHg 42%
    08:00 0°C° 0 mm 7 mps 702 mmHg 39%
    09:00 +3°C° 0 mm 7 mps 702 mmHg 37%
    10:00 +4°C° 0 mm 7 mps 702 mmHg 35%
    11:00 +4°C° 0 mm 7 mps 702 mmHg 31%
    12:00 +5°C° 0 mm 7 mps 702 mmHg 26%
    13:00 +5°C° 0 mm 7 mps 701 mmHg 22%
    14:00 +5°C° 0 mm 6 mps 701 mmHg 22%
    15:00 +7°C° 0 mm 5 mps 701 mmHg 22%
    16:00 +7°C° 0 mm 5 mps 701 mmHg 21%
    17:00 +5°C° 0 mm 3 mps 701 mmHg 25%
    18:00 +5°C° 0 mm 2 mps 701 mmHg 28%
    19:00 +5°C° 0 mm 1 mps 701 mmHg 32%
    20:00 +4°C° 0 mm 1 mps 702 mmHg 33%
    21:00 +3°C° 0 mm 1 mps 702 mmHg 35%
    22:00 +2°C° 0 mm 1 mps 702 mmHg 36%
    23:00 +2°C° 0 mm 1 mps 702 mmHg 37%
    Show more